Tracking 30922 objects as of 2-Jul-2025
HD Live streaming from Space Station
objects crossing your sky now

CZ-2D DEB

Track CZ-2D DEB now!
10-day predictions


NORAD ID: 38323
Int'l Code: 2008-056J
Perigee: 775.1 km
Apogee: 1,058.5 km
Inclination: 98.5 °
Period: 103.2 minutes
Semi major axis: 7287 km
RCS: 0.0014 m2 (small)
Launch date: November 5, 2008
Source: People's Republic of China (PRC)
Launch site: Jiuquan Satellite Launch Center, China (JSC)

Note: This is SATELLITE DEBRIS
Your satellite tracking list
Your tracking list is empty




NASA's NSSDC Master Catalog

Two Line Element Set (TLE):
1 38323U 08056J   25182.62745488  .00000304  00000-0  21722-3 0  9994
2 38323  98.5030 134.0430 0194463 276.7970 266.7263 13.95437647842135
Source of the keplerian elements: AFSPC